TGM annuale;;;;;;;;;;;;;;;;TGM annuale;;;;;;;;;;;;;;;;TGM annuale;;;;;;;;;;;;;;
Tratta nr.4 SR2, Km 250.000, Poggibonsi(SI) (flussi ascendente/discendente);;;;;;;;;;;;;;;;Tratta nr.4 SR2, Km 250.000, Poggibonsi(SI) (flusso ascendente);;;;;;;;;;;;;;;;Tratta nr.4 SR2, Km 250.000, Poggibonsi(SI) (flusso discendente);;;;;;;;;;;;;;
Anno;01 Motocicli;02 Auto e monovolume;03 Auto e monovolume con rimorchio;04 Furgoncini e camioncini;05 Camion medi;06 Camion grandi;07 Autotreni;08 Autoarticolati;09 Autobus;10 Veicoli non classificati;Totale;Feriali;Festivi;Prefestivi;;Anno;01 Motocicli;02 Auto e monovolume;03 Auto e monovolume con rimorchio;04 Furgoncini e camioncini;05 Camion medi;06 Camion grandi;07 Autotreni;08 Autoarticolati;09 Autobus;10 Veicoli non classificati;Totale;Feriali;Festivi;Prefestivi;;Anno;01 Motocicli;02 Auto e monovolume;03 Auto e monovolume con rimorchio;04 Furgoncini e camioncini;05 Camion medi;06 Camion grandi;07 Autotreni;08 Autoarticolati;09 Autobus;10 Veicoli non classificati;Totale;Feriali;Festivi;Prefestivi
2019;115;6780;3;416;64;36;85;18;37;0;7554;8375;4942;6709;;2019;56;3442;1;211;33;18;34;9;19;0;3825;4236;2491;3429;;2019;59;3337;1;205;31;19;50;9;18;0;3730;4139;2451;3280
;;;;;;;;;;;;;;;;;;;;;;;;;;;;;;;;;;;;;;;;;;;;;;
Tabella flussi 2019;;;;;;;;;;;;;;;;Tabella flussi 2019;;;;;;;;;;;;;;;;Tabella flussi 2019;;;;;;;;;;;;;;
Tratta nr.4 SR2, Km 250.000, Poggibonsi(SI) (flussi ascendente/discendente);;;;;;;;;;;;;;;;Tratta nr.4 SR2, Km 250.000, Poggibonsi(SI) (flusso ascendente);;;;;;;;;;;;;;;;Tratta nr.4 SR2, Km 250.000, Poggibonsi(SI) (flusso discendente);;;;;;;;;;;;;;
;Traffico Totale;;;;;;;;;;;Traffico Med.Orario 06:00 - 20:00;Traffico Ora di punta;;;;Traffico Totale;;;;;;;;;;;Traffico Med.Orario 06:00 - 20:00;Traffico Ora di punta;;;;Traffico Totale;;;;;;;;;;;Traffico Med.Orario 06:00 - 20:00;Traffico Ora di punta;
Giorno;01 Motocicli;02 Auto e monovolume;03 Auto e monovolume con rimorchio;04 Furgoncini e camioncini;05 Camion medi;06 Camion grandi;07 Autotreni;08 Autoarticolati;09 Autobus;10 Veicoli non classificati;Totale;Totale;Ora di punta;Flusso totale ora di punta;;Giorno;01 Motocicli;02 Auto e monovolume;03 Auto e monovolume con rimorchio;04 Furgoncini e camioncini;05 Camion medi;06 Camion grandi;07 Autotreni;08 Autoarticolati;09 Autobus;10 Veicoli non classificati;Totale;Totale;Ora di punta;Flusso totale ora di punta;;Giorno;01 Motocicli;02 Auto e monovolume;03 Auto e monovolume con rimorchio;04 Furgoncini e camioncini;05 Camion medi;06 Camion grandi;07 Autotreni;08 Autoarticolati;09 Autobus;10 Veicoli non classificati;Totale;Totale;Ora di punta;Flusso totale ora di punta
01/01/2019;39;3898;1;84;7;1;25;1;16;0;4072;204;17;359;;01/01/2019;18;2005;1;39;1;0;11;0;8;0;2083;109;17;206;;01/01/2019;21;1893;0;45;6;1;14;1;8;0;1989;95;18;174
02/01/2019;28;6718;4;417;55;28;86;11;41;0;7388;472;17;667;;02/01/2019;13;3405;3;214;26;13;35;4;21;0;3734;242;17;354;;02/01/2019;15;3313;1;203;29;15;51;7;20;0;3654;230;19;327
03/01/2019;39;6986;3;368;42;27;65;11;43;0;7584;485;18;645;;03/01/2019;16;3565;1;192;22;12;23;7;25;0;3863;251;17;346;;03/01/2019;23;3421;2;176;20;15;42;4;18;0;3721;234;18;373
04/01/2019;31;6922;3;393;44;34;97;13;49;0;7586;473;12;631;;04/01/2019;12;3485;2;195;22;20;40;7;27;0;3810;244;17;328;;04/01/2019;19;3437;1;198;22;14;57;6;22;0;3776;230;12;340
05/01/2019;47;5842;1;212;8;8;59;3;33;0;6213;375;11;555;;05/01/2019;15;2952;1;120;5;4;27;1;15;0;3140;195;11;292;;05/01/2019;32;2890;0;92;3;4;32;2;18;0;3073;180;12;326
06/01/2019;26;4443;0;101;8;1;47;3;11;0;4640;273;12;440;;06/01/2019;12;2212;0;44;6;1;23;1;5;0;2304;142;16;252;;06/01/2019;14;2231;0;57;2;0;24;2;6;0;2336;131;19;237
07/01/2019;35;7297;3;438;76;41;87;17;49;0;8043;519;17;722;;07/01/2019;12;3703;2;225;43;19;41;8;27;0;4080;268;8;381;;07/01/2019;23;3594;1;213;33;22;46;9;22;0;3963;251;18;379
08/01/2019;40;7534;0;467;91;49;99;21;51;0;8352;535;17;699;;08/01/2019;14;3862;0;233;49;27;44;9;26;0;4264;275;8;400;;08/01/2019;26;3672;0;234;42;22;55;12;25;0;4088;260;19;366
09/01/2019;33;7405;3;513;99;33;86;37;52;0;8261;527;17;689;;09/01/2019;11;3753;2;261;48;16;45;20;29;0;4185;272;8;393;;09/01/2019;22;3652;1;252;51;17;41;17;23;0;4076;255;19;385
10/01/2019;30;7465;1;463;86;49;97;36;55;0;8282;530;17;719;;10/01/2019;10;3782;0;239;45;26;45;16;24;0;4187;273;8;384;;10/01/2019;20;3683;1;224;41;23;52;20;31;0;4095;257;18;391
11/01/2019;31;7543;1;518;102;54;92;33;53;0;8427;539;17;710;;11/01/2019;17;3826;0;262;55;30;40;16;28;0;4274;277;8;373;;11/01/2019;14;3717;1;256;47;24;52;17;25;0;4153;261;17;353
12/01/2019;42;5972;4;236;26;6;75;3;36;0;6400;391;12;558;;12/01/2019;16;3068;2;123;13;3;24;1;19;0;3269;205;10;299;;12/01/2019;26;2904;2;113;13;3;51;2;17;0;3131;186;12;324
13/01/2019;39;4313;3;80;6;1;51;2;12;0;4507;260;17;414;;13/01/2019;13;2158;2;42;2;1;21;0;6;0;2245;137;16;221;;13/01/2019;26;2155;1;38;4;0;30;2;6;0;2262;124;12;220
14/01/2019;31;7402;5;482;82;60;83;24;43;0;8212;525;17;726;;14/01/2019;20;3767;2;249;40;27;37;9;22;0;4173;271;8;379;;14/01/2019;11;3635;3;233;42;33;46;15;21;0;4039;253;19;357
15/01/2019;44;7525;2;443;81;73;84;31;42;0;8325;538;18;678;;15/01/2019;15;3786;1;228;41;37;34;16;24;0;4182;277;8;399;;15/01/2019;29;3739;1;215;40;36;50;15;18;0;4143;261;19;375
16/01/2019;38;7336;1;485;69;34;76;25;44;0;8108;520;17;681;;16/01/2019;14;3720;0;250;35;15;24;15;23;0;4096;268;8;386;;16/01/2019;24;3616;1;235;34;19;52;10;21;0;4012;252;19;357
17/01/2019;24;7370;0;477;90;54;78;26;46;0;8165;524;8;676;;17/01/2019;8;3706;0;245;41;32;30;12;24;0;4098;268;8;401;;17/01/2019;16;3664;0;232;49;22;48;14;22;0;4067;256;19;383
18/01/2019;42;7439;5;478;81;44;97;22;46;0;8254;522;17;676;;18/01/2019;17;3753;2;241;49;21;31;14;22;0;4150;266;8;389;;18/01/2019;25;3686;3;237;32;23;66;8;24;0;4104;255;19;355
19/01/2019;51;6315;6;241;13;5;68;8;40;0;6747;406;11;552;;19/01/2019;22;3241;3;125;6;3;29;3;21;0;3453;215;10;329;;19/01/2019;29;3074;3;116;7;2;39;5;19;0;3294;192;11;296
20/01/2019;43;4414;2;87;16;2;40;0;14;0;4618;267;17;437;;20/01/2019;17;2179;1;48;7;1;20;0;8;0;2281;139;17;236;;20/01/2019;26;2235;1;39;9;1;20;0;6;0;2337;127;19;213
21/01/2019;34;7506;3;465;73;53;75;17;50;0;8276;533;8;680;;21/01/2019;6;3824;1;236;42;28;31;7;26;0;4201;275;7;385;;21/01/2019;28;3682;2;229;31;25;44;10;24;0;4075;258;18;370
22/01/2019;19;6796;0;417;75;52;81;28;49;0;7517;494;8;628;;22/01/2019;3;3433;0;214;37;26;28;15;25;0;3781;252;8;373;;22/01/2019;16;3363;0;203;38;26;53;13;24;0;3736;242;12;335
23/01/2019;29;7130;7;408;71;53;87;22;48;0;7855;504;17;628;;23/01/2019;6;3608;4;213;37;26;39;10;25;0;3968;260;8;342;;23/01/2019;23;3522;3;195;34;27;48;12;23;0;3887;244;19;342
24/01/2019;41;7417;3;464;81;51;67;28;53;0;8205;526;18;691;;24/01/2019;15;3787;1;234;42;24;32;15;30;0;4180;272;8;374;;24/01/2019;26;3630;2;230;39;27;35;13;23;0;4025;253;19;383
25/01/2019;37;7535;4;463;96;37;92;34;50;0;8348;530;17;690;;25/01/2019;13;3817;2;232;48;20;37;17;24;0;4210;273;8;349;;25/01/2019;24;3718;2;231;48;17;55;17;26;0;4138;257;17;344
26/01/2019;55;6297;1;226;17;9;71;7;34;0;6717;410;17;544;;26/01/2019;29;3219;1;114;8;2;37;4;20;0;3434;215;16;330;;26/01/2019;26;3078;0;112;9;7;34;3;14;0;3283;195;12;313
27/01/2019;45;4392;0;104;9;0;57;1;12;0;4620;265;17;412;;27/01/2019;17;2180;0;52;3;0;21;1;7;0;2281;137;17;233;;27/01/2019;28;2212;0;52;6;0;36;0;5;0;2339;128;12;232
28/01/2019;31;7324;2;432;79;48;103;22;46;0;8087;517;17;727;;28/01/2019;11;3731;2;224;38;24;44;10;23;0;4107;267;17;373;;28/01/2019;20;3593;0;208;41;24;59;12;23;0;3980;249;19;357
29/01/2019;48;7379;6;451;107;49;83;47;46;0;8216;535;18;691;;29/01/2019;20;3746;2;221;57;22;41;21;23;0;4153;275;7;414;;29/01/2019;28;3633;4;230;50;27;42;26;23;0;4063;259;18;401
30/01/2019;31;6633;3;470;84;49;92;34;55;0;7451;490;8;671;;30/01/2019;11;3343;1;241;44;26;29;20;29;0;3744;250;7;399;;30/01/2019;20;3290;2;229;40;23;63;14;26;0;3707;240;8;302
31/01/2019;27;6981;0;378;77;62;80;23;52;0;7680;492;18;655;;31/01/2019;7;3571;0;199;39;28;32;13;26;0;3915;256;8;373;;31/01/2019;20;3410;0;179;38;34;48;10;26;0;3765;236;18;383
01/02/2019;31;7448;1;470;64;44;94;24;49;0;8225;521;18;678;;01/02/2019;5;3736;0;238;32;24;39;12;25;0;4111;265;8;368;;01/02/2019;26;3712;1;232;32;20;55;12;24;0;4114;256;18;379
02/02/2019;20;5924;2;231;21;4;68;6;36;0;6312;381;12;542;;02/02/2019;4;3014;1;117;11;2;37;3;20;0;3209;201;10;295;;02/02/2019;16;2910;1;114;10;2;31;3;16;0;3103;180;12;346
03/02/2019;25;4441;2;107;14;0;35;1;13;0;4638;265;17;459;;03/02/2019;8;2193;1;58;6;0;18;0;7;0;2291;139;17;256;;03/02/2019;17;2248;1;49;8;0;17;1;6;0;2347;126;11;224
04/02/2019;36;7299;1;456;107;49;105;18;46;0;8117;523;18;680;;04/02/2019;12;3708;1;234;61;21;49;8;24;0;4118;268;8;383;;04/02/2019;24;3591;0;222;46;28;56;10;22;0;3999;255;18;390
05/02/2019;49;7494;2;464;89;50;96;20;42;0;8306;537;18;720;;05/02/2019;17;3813;1;239;45;24;39;6;23;0;4207;279;8;395;;05/02/2019;32;3681;1;225;44;26;57;14;19;0;4099;258;18;412
06/02/2019;47;7370;2;535;82;52;84;34;53;0;8259;527;17;707;;06/02/2019;24;3750;1;276;43;27;33;16;28;0;4198;274;8;400;;06/02/2019;23;3620;1;259;39;25;51;18;25;0;4061;252;18;369
07/02/2019;49;7314;2;476;95;44;97;39;50;0;8166;526;18;755;;07/02/2019;24;3710;0;237;49;22;33;21;25;0;4121;271;7;370;;07/02/2019;25;3604;2;239;46;22;64;18;25;0;4045;255;18;437
08/02/2019;40;7803;0;495;97;55;100;24;51;0;8665;551;17;735;;08/02/2019;18;3951;0;244;47;27;46;14;26;0;4373;284;8;421;;08/02/2019;22;3852;0;251;50;28;54;10;25;0;4292;268;19;401
09/02/2019;52;6279;4;226;26;8;46;4;39;0;6684;404;17;544;;09/02/2019;18;3237;3;116;13;4;21;2;20;0;3434;213;17;310;;09/02/2019;34;3042;1;110;13;4;25;2;19;0;3250;191;12;296
10/02/2019;39;4430;3;104;7;0;51;1;12;0;4647;270;17;417;;10/02/2019;11;2210;2;51;3;0;21;0;5;0;2303;139;17;238;;10/02/2019;28;2220;1;53;4;0;30;1;7;0;2344;131;19;252
11/02/2019;47;7367;0;499;88;45;82;16;42;0;8186;526;18;667;;11/02/2019;22;3739;0;246;45;26;39;6;21;0;4144;271;7;379;;11/02/2019;25;3628;0;253;43;19;43;10;21;0;4042;255;19;380
12/02/2019;47;7590;5;473;103;51;96;50;44;0;8459;544;18;759;;12/02/2019;21;3847;2;245;50;26;38;25;21;0;4275;281;7;402;;12/02/2019;26;3743;3;228;53;25;58;25;23;0;4184;263;18;396
13/02/2019;48;7526;7;492;103;50;94;30;40;0;8390;538;18;712;;13/02/2019;20;3844;4;250;55;28;38;17;21;0;4277;282;7;394;;13/02/2019;28;3682;3;242;48;22;56;13;19;0;4113;257;19;388
14/02/2019;50;7615;4;493;100;58;95;17;48;0;8480;539;18;715;;14/02/2019;23;3889;1;245;50;26;40;9;25;0;4308;278;8;376;;14/02/2019;27;3726;3;248;50;32;55;8;23;0;4172;261;19;425
15/02/2019;55;7473;3;492;96;55;112;25;50;0;8361;528;17;676;;15/02/2019;21;3780;2;238;49;26;44;12;27;0;4199;269;17;364;;15/02/2019;34;3693;1;254;47;29;68;13;23;0;4162;258;19;388
16/02/2019;118;6242;2;241;18;11;77;6;38;0;6753;412;16;533;;16/02/2019;50;3174;1;133;11;5;33;2;20;0;3429;215;16;315;;16/02/2019;68;3068;1;108;7;6;44;4;18;0;3324;197;12;307
17/02/2019;79;4518;0;111;3;3;51;2;12;0;4779;276;18;435;;17/02/2019;36;2255;0;58;2;1;24;1;6;0;2383;145;16;235;;17/02/2019;43;2263;0;53;1;2;27;1;6;0;2396;131;18;239
18/02/2019;47;7195;3;527;91;61;77;23;49;0;8073;519;18;742;;18/02/2019;17;3707;1;265;46;28;27;13;23;0;4127;271;17;379;;18/02/2019;30;3488;2;262;45;33;50;10;26;0;3946;248;18;412
19/02/2019;40;7463;4;462;93;70;109;30;42;0;8313;539;18;726;;19/02/2019;21;3797;2;232;47;30;40;11;19;0;4199;277;8;392;;19/02/2019;19;3666;2;230;46;40;69;19;23;0;4114;262;18;402
20/02/2019;70;7357;2;538;101;66;101;28;42;0;8305;533;8;719;;20/02/2019;34;3713;1;268;58;33;42;16;20;0;4185;275;8;408;;20/02/2019;36;3644;1;270;43;33;59;12;22;0;4120;259;18;363
21/02/2019;62;7412;2;541;91;67;96;35;51;0;8357;537;18;719;;21/02/2019;24;3783;1;276;48;33;45;18;27;0;4255;280;8;418;;21/02/2019;38;3629;1;265;43;34;51;17;24;0;4102;257;18;375
22/02/2019;52;7461;0;502;95;48;97;25;42;0;8322;528;17;735;;22/02/2019;23;3788;0;267;48;24;42;12;20;0;4224;274;17;374;;22/02/2019;29;3673;0;235;47;24;55;13;22;0;4098;254;18;388
23/02/2019;86;6278;1;277;24;7;95;1;37;0;6806;415;17;583;;23/02/2019;45;3246;0;134;11;3;42;0;18;0;3499;220;17;324;;23/02/2019;41;3032;1;143;13;4;53;1;19;0;3307;195;12;321
24/02/2019;54;4650;0;92;8;0;34;4;15;0;4857;283;17;457;;24/02/2019;27;2291;0;45;5;0;18;1;7;0;2394;147;17;252;;24/02/2019;27;2359;0;47;3;0;16;3;8;0;2463;135;18;241
25/02/2019;47;7420;0;474;84;49;76;20;42;0;8212;527;18;704;;25/02/2019;20;3830;0;237;41;25;27;8;22;0;4210;274;8;377;;25/02/2019;27;3590;0;237;43;24;49;12;20;0;4002;252;18;372
26/02/2019;61;7459;5;519;91;62;110;28;40;0;8375;542;18;698;;26/02/2019;28;3761;2;268;47;31;45;16;20;0;4218;278;8;406;;26/02/2019;33;3698;3;251;44;31;65;12;20;0;4157;264;18;390
27/02/2019;61;7410;4;553;72;54;100;16;43;0;8313;533;18;671;;27/02/2019;24;3769;1;293;34;23;46;7;21;0;4218;276;7;353;;27/02/2019;37;3641;3;260;38;31;54;9;22;0;4095;257;19;413
28/02/2019;79;7799;2;475;85;77;93;39;48;0;8697;555;17;742;;28/02/2019;31;3958;1;250;48;40;36;21;24;0;4409;287;8;411;;28/02/2019;48;3841;1;225;37;37;57;18;24;0;4288;269;19;422
01/03/2019;51;8017;5;523;82;52;78;20;43;0;8871;560;17;743;;01/03/2019;23;4072;2;262;44;30;32;9;22;0;4496;289;8;410;;01/03/2019;28;3945;3;261;38;22;46;11;21;0;4375;271;18;398
02/03/2019;82;6608;5;270;14;7;73;3;40;0;7102;432;17;570;;02/03/2019;40;3355;2;139;8;4;32;1;21;0;3602;227;17;295;;02/03/2019;42;3253;3;131;6;3;41;2;19;0;3500;206;12;303
03/03/2019;126;4684;2;120;5;4;46;1;13;0;5001;294;17;445;;03/03/2019;62;2320;0;63;4;2;18;0;6;0;2475;152;17;251;;03/03/2019;64;2364;2;57;1;2;28;1;7;0;2526;142;12;246
04/03/2019;55;7352;5;465;90;44;91;24;44;0;8170;520;17;743;;04/03/2019;24;3821;2;227;46;24;37;10;23;0;4214;272;7;405;;04/03/2019;31;3531;3;238;44;20;54;14;21;0;3956;248;17;369
05/03/2019;69;7794;2;519;90;56;91;19;41;0;8681;556;17;737;;05/03/2019;34;3940;1;262;46;26;33;11;22;0;4375;286;7;404;;05/03/2019;35;3854;1;257;44;30;58;8;19;0;4306;270;18;410
06/03/2019;66;7598;2;533;102;57;85;18;42;0;8503;541;18;721;;06/03/2019;21;3844;0;274;52;31;24;10;22;0;4278;279;8;396;;06/03/2019;45;3754;2;259;50;26;61;8;20;0;4225;263;18;386
07/03/2019;71;7726;0;510;107;40;71;31;38;0;8594;547;18;760;;07/03/2019;31;3923;0;264;56;17;32;17;19;0;4359;285;8;425;;07/03/2019;40;3803;0;246;51;23;39;14;19;0;4235;263;18;416
08/03/2019;73;8025;1;532;101;46;91;27;43;0;8939;558;17;717;;08/03/2019;29;4110;1;270;52;24;33;14;20;0;4553;289;7;380;;08/03/2019;44;3915;0;262;49;22;58;13;23;0;4386;270;18;375
09/03/2019;118;6485;0;274;22;9;75;1;38;0;7022;425;17;622;;09/03/2019;53;3363;0;134;12;2;40;1;19;0;3624;227;17;369;;09/03/2019;65;3122;0;140;10;7;35;0;19;0;3398;198;12;300
10/03/2019;74;4601;2;106;10;2;54;0;14;0;4863;284;17;475;;10/03/2019;34;2308;1;53;7;2;21;0;8;0;2434;150;17;274;;10/03/2019;40;2293;1;53;3;0;33;0;6;0;2429;134;12;234
11/03/2019;49;7398;1;532;90;62;94;32;42;0;8300;532;17;696;;11/03/2019;22;3754;0;282;54;30;35;16;22;0;4215;275;8;374;;11/03/2019;27;3644;1;250;36;32;59;16;20;0;4085;258;18;347
12/03/2019;58;7618;1;472;108;62;115;26;45;0;8505;546;18;701;;12/03/2019;29;3863;1;239;57;33;50;12;26;0;4310;282;7;396;;12/03/2019;29;3755;0;233;51;29;65;14;19;0;4195;264;19;379
13/03/2019;50;7693;6;589;113;66;83;30;42;0;8672;554;18;711;;13/03/2019;17;3912;2;286;58;32;38;16;22;0;4383;287;7;401;;13/03/2019;33;3781;4;303;55;34;45;14;20;0;4289;267;19;392
14/03/2019;76;7787;3;497;98;61;84;33;49;0;8688;555;17;781;;14/03/2019;39;3953;2;256;43;27;34;15;26;0;4395;286;8;435;;14/03/2019;37;3834;1;241;55;34;50;18;23;0;4293;269;18;386
15/03/2019;80;7729;1;538;89;64;98;19;46;0;8664;543;17;720;;15/03/2019;41;3952;1;277;50;38;44;7;23;0;4433;282;17;397;;15/03/2019;39;3777;0;261;39;26;54;12;23;0;4231;261;19;391
16/03/2019;149;6620;6;265;18;13;82;1;39;0;7193;439;18;585;;16/03/2019;74;3411;3;134;11;6;31;1;23;0;3694;232;17;327;;16/03/2019;75;3209;3;131;7;7;51;0;16;0;3499;206;12;328
17/03/2019;109;4720;0;109;8;1;57;2;16;0;5022;292;17;483;;17/03/2019;50;2364;0;57;4;1;27;1;7;0;2511;153;17;266;;17/03/2019;59;2356;0;52;4;0;30;1;9;0;2511;139;18;230
18/03/2019;48;7628;1;519;87;47;88;34;46;0;8498;542;18;762;;18/03/2019;13;3877;1;275;51;19;30;22;25;0;4313;280;8;401;;18/03/2019;35;3751;0;244;36;28;58;12;21;0;4185;262;18;421
19/03/2019;32;7732;0;523;96;56;85;32;45;0;8601;553;17;721;;19/03/2019;14;3964;0;269;44;30;35;18;24;0;4398;289;7;418;;19/03/2019;18;3768;0;254;52;26;50;14;21;0;4203;265;19;394
20/03/2019;65;7484;6;508;99;50;109;22;40;0;8383;531;8;688;;20/03/2019;32;3735;3;261;53;22;42;12;21;0;4181;272;8;391;;20/03/2019;33;3749;3;247;46;28;67;10;19;0;4202;259;18;367
21/03/2019;83;7599;4;520;93;58;77;37;35;0;8506;542;18;743;;21/03/2019;33;3845;2;263;47;27;27;17;16;0;4277;278;7;390;;21/03/2019;50;3754;2;257;46;31;50;20;19;0;4229;265;19;420
22/03/2019;131;7614;3;502;93;55;105;36;42;0;8581;541;18;725;;22/03/2019;65;3823;2;262;47;28;41;18;21;0;4307;279;8;380;;22/03/2019;66;3791;1;240;46;27;64;18;21;0;4274;262;19;363
23/03/2019;175;6299;1;269;21;11;76;1;37;0;6890;418;17;544;;23/03/2019;84;3216;1;140;13;4;32;1;20;0;3511;220;17;317;;23/03/2019;91;3083;0;129;8;7;44;0;17;0;3379;199;12;307
24/03/2019;159;4900;4;113;14;4;66;0;8;0;5268;306;17;485;;24/03/2019;82;2488;2;56;6;1;17;0;4;0;2656;162;17;266;;24/03/2019;77;2412;2;57;8;3;49;0;4;0;2612;144;19;250
25/03/2019;105;7529;1;527;75;66;100;32;44;0;8479;546;18;725;;25/03/2019;54;3824;1;276;40;28;41;19;21;0;4304;283;7;409;;25/03/2019;51;3705;0;251;35;38;59;13;23;0;4175;263;19;387
26/03/2019;58;7644;0;476;88;45;94;27;40;0;8472;545;18;709;;26/03/2019;29;3947;0;250;48;20;34;12;20;0;4360;286;7;419;;26/03/2019;29;3697;0;226;40;25;60;15;20;0;4112;259;19;382
27/03/2019;65;7630;1;538;104;59;81;38;45;0;8561;543;8;698;;27/03/2019;32;3842;1;276;55;26;32;19;21;0;4304;280;8;403;;27/03/2019;33;3788;0;262;49;33;49;19;24;0;4257;263;19;363
28/03/2019;73;7875;4;489;95;49;100;20;48;0;8753;560;18;789;;28/03/2019;32;4006;2;247;47;24;44;10;26;0;4438;288;7;413;;28/03/2019;41;3869;2;242;48;25;56;10;22;0;4315;272;18;423
29/03/2019;85;7958;0;554;96;55;93;18;44;0;8903;565;18;764;;29/03/2019;44;4035;0;278;54;31;34;10;23;0;4509;292;8;414;;29/03/2019;41;3923;0;276;42;24;59;8;21;0;4394;273;19;404
30/03/2019;173;6441;1;257;23;11;90;5;30;0;7031;423;19;543;;30/03/2019;98;3312;0;135;11;5;29;3;15;0;3608;223;17;301;;30/03/2019;75;3129;1;122;12;6;61;2;15;0;3423;201;19;298
31/03/2019;144;4931;1;125;9;1;45;1;14;0;5271;301;19;502;;31/03/2019;77;2509;0;59;7;0;15;0;6;0;2673;161;17;282;;31/03/2019;67;2422;1;66;2;1;30;1;8;0;2598;140;19;266
01/04/2019;94;7554;1;534;93;74;104;21;44;0;8519;538;18;733;;01/04/2019;45;3822;0;254;54;36;38;14;20;0;4283;276;8;406;;01/04/2019;49;3732;1;280;39;38;66;7;24;0;4236;262;19;401
02/04/2019;114;7887;1;513;92;57;82;23;43;0;8812;565;18;735;;02/04/2019;50;4006;1;253;46;29;33;11;23;0;4452;291;8;410;;02/04/2019;64;3881;0;260;46;28;49;12;20;0;4360;273;18;388
03/04/2019;29;7514;1;532;101;54;104;34;41;0;8410;532;17;700;;03/04/2019;10;3786;0;280;49;24;34;14;20;0;4217;273;8;395;;03/04/2019;19;3728;1;252;52;30;70;20;21;0;4193;259;19;375
04/04/2019;25;7537;3;513;91;64;85;25;44;0;8387;538;17;728;;04/04/2019;7;3817;2;274;43;35;38;10;23;0;4249;277;8;397;;04/04/2019;18;3720;1;239;48;29;47;15;21;0;4138;260;18;368
05/04/2019;51;7842;3;580;97;59;98;33;47;0;8810;554;17;734;;05/04/2019;23;3997;1;292;51;31;37;17;25;0;4474;288;8;414;;05/04/2019;28;3845;2;288;46;28;61;16;22;0;4336;266;18;364
06/04/2019;127;6635;2;251;13;12;74;3;41;0;7158;425;12;552;;06/04/2019;58;3418;1;127;7;5;28;1;21;0;3666;225;17;294;;06/04/2019;69;3217;1;124;6;7;46;2;20;0;3492;200;19;300
07/04/2019;28;4926;1;90;6;0;41;0;12;0;5104;284;19;457;;07/04/2019;6;2490;0;42;4;0;12;0;5;0;2559;150;17;265;;07/04/2019;22;2436;1;48;2;0;29;0;7;0;2545;133;19;280
08/04/2019;66;7660;0;586;97;63;68;32;45;0;8617;550;17;737;;08/04/2019;30;3867;0;299;51;28;24;14;21;0;4334;281;8;403;;08/04/2019;36;3793;0;287;46;35;44;18;24;0;4283;269;19;375
09/04/2019;85;7848;0;536;111;67;78;24;48;0;8797;566;18;791;;09/04/2019;41;4011;0;270;56;33;31;13;24;0;4479;294;8;426;;09/04/2019;44;3837;0;266;55;34;47;11;24;0;4318;272;18;415
10/04/2019;52;7818;2;553;96;64;84;27;51;0;8747;558;18;745;;10/04/2019;18;3953;0;276;48;33;36;13;25;0;4402;286;8;398;;10/04/2019;34;3865;2;277;48;31;48;14;26;0;4345;271;18;395
11/04/2019;38;7862;0;563;66;48;85;30;46;0;8738;553;18;746;;11/04/2019;10;3957;0;288;35;24;33;15;22;0;4384;285;8;407;;11/04/2019;28;3905;0;275;31;24;52;15;24;0;4354;268;18;401
12/04/2019;63;7911;5;566;99;58;106;29;46;0;8883;560;17;726;;12/04/2019;24;4004;1;276;49;32;47;18;23;0;4474;288;8;399;;12/04/2019;39;3907;4;290;50;26;59;11;23;0;4409;272;19;369
13/04/2019;106;6975;2;262;24;6;74;2;35;0;7486;448;12;581;;13/04/2019;47;3547;1;131;14;2;37;1;17;0;3797;236;17;303;;13/04/2019;59;3428;1;131;10;4;37;1;18;0;3689;212;12;353
14/04/2019;35;4639;4;103;9;2;42;1;12;0;4847;275;12;428;;14/04/2019;11;2334;2;47;7;0;21;1;6;0;2429;145;10;242;;14/04/2019;24;2305;2;56;2;2;21;0;6;0;2418;129;12;258
15/04/2019;78;7564;11;537;112;53;96;23;41;0;8515;543;7;643;;15/04/2019;34;3806;7;280;58;26;39;10;20;0;4280;280;7;379;;15/04/2019;44;3758;4;257;54;27;57;13;21;0;4235;264;19;396
16/04/2019;111;8201;3;527;97;44;82;25;38;0;9128;582;18;781;;16/04/2019;49;4185;1;243;49;21;37;13;19;0;4617;299;8;446;;16/04/2019;62;4016;2;284;48;23;45;12;19;0;4511;283;18;405
17/04/2019;110;8238;1;552;100;64;117;25;54;0;9261;585;18;835;;17/04/2019;52;4271;0;283;49;29;35;13;27;0;4759;307;18;474;;17/04/2019;58;3967;1;269;51;35;82;12;27;0;4502;278;19;450
18/04/2019;133;8255;8;541;88;45;107;18;37;0;9232;573;18;812;;18/04/2019;61;4192;4;279;39;24;44;8;22;0;4673;296;17;422;;18/04/2019;72;4063;4;262;49;21;63;10;15;0;4559;277;19;438
19/04/2019;160;8233;7;577;90;40;97;13;39;0;9256;574;18;738;;19/04/2019;82;4179;3;294;43;22;32;9;21;0;4685;297;17;407;;19/04/2019;78;4054;4;283;47;18;65;4;18;0;4571;277;19;396
20/04/2019;262;6562;10;242;13;2;84;4;41;0;7220;431;10;588;;20/04/2019;134;3373;5;129;9;0;34;3;20;0;3707;228;10;341;;20/04/2019;128;3189;5;113;4;2;50;1;21;0;3513;203;12;312
21/04/2019;141;4749;0;93;5;1;44;2;17;0;5052;286;12;507;;21/04/2019;78;2389;0;39;1;1;14;2;8;0;2532;148;18;260;;21/04/2019;63;2360;0;54;4;0;30;0;9;0;2520;138;12;291
22/04/2019;115;4284;1;134;13;2;53;0;10;0;4612;274;18;396;;22/04/2019;57;2244;1;62;5;1;19;0;6;0;2395;145;16;233;;22/04/2019;58;2040;0;72;8;1;34;0;4;0;2217;129;12;205
23/04/2019;47;7525;5;462;54;66;87;25;43;0;8314;527;18;718;;23/04/2019;17;3802;3;229;31;34;35;13;21;0;4185;271;17;380;;23/04/2019;30;3723;2;233;23;32;52;12;22;0;4129;256;12;371
24/04/2019;125;7452;5;566;86;39;107;25;44;0;8449;531;18;722;;24/04/2019;59;3781;2;286;49;20;38;10;23;0;4268;273;17;354;;24/04/2019;66;3671;3;280;37;19;69;15;21;0;4181;258;18;369
25/04/2019;238;4712;0;136;16;5;56;0;14;0;5177;300;18;473;;25/04/2019;110;2465;0;69;7;1;25;0;7;0;2684;161;18;264;;25/04/2019;128;2247;0;67;9;4;31;0;7;0;2493;138;11;222
26/04/2019;93;7170;8;435;41;24;85;5;44;0;7905;491;17;618;;26/04/2019;43;3643;5;222;23;11;30;3;20;0;4000;255;16;357;;26/04/2019;50;3527;3;213;18;13;55;2;24;0;3905;236;19;341
27/04/2019;205;6147;2;237;31;4;73;3;37;0;6739;400;18;531;;27/04/2019;132;3158;1;119;18;1;26;2;19;0;3476;214;17;288;;27/04/2019;73;2989;1;118;13;3;47;1;18;0;3263;186;19;278
28/04/2019;108;4951;3;118;10;0;52;0;16;0;5258;281;18;421;;28/04/2019;66;2551;1;61;4;0;17;0;7;0;2707;157;18;244;;28/04/2019;42;2400;2;57;6;0;35;0;9;0;2551;124;22;222
29/04/2019;63;7787;5;530;100;42;97;24;45;0;8693;554;18;738;;29/04/2019;25;3971;3;277;49;19;31;12;22;0;4409;286;8;385;;29/04/2019;38;3816;2;253;51;23;66;12;23;0;4284;267;18;378
30/04/2019;114;8118;4;523;72;47;114;24;46;0;9062;575;18;777;;30/04/2019;65;4095;2;252;36;22;43;14;24;0;4553;295;8;397;;30/04/2019;49;4023;2;271;36;25;71;10;22;0;4509;280;19;426
01/05/2019;139;4391;1;116;14;2;40;1;1;0;4705;273;19;458;;01/05/2019;77;2219;0;57;7;1;18;1;0;0;2380;141;18;228;;01/05/2019;62;2172;1;59;7;1;22;0;1;0;2325;131;19;255
02/05/2019;138;7901;7;561;106;50;100;22;48;0;8933;564;18;749;;02/05/2019;69;3982;3;278;54;24;34;12;26;0;4482;289;8;408;;02/05/2019;69;3919;4;283;52;26;66;10;22;0;4451;275;19;408
03/05/2019;79;8139;1;498;101;38;75;22;43;0;8996;570;17;734;;03/05/2019;43;4134;1;258;50;22;32;11;21;0;4572;297;8;410;;03/05/2019;36;4005;0;240;51;16;43;11;22;0;4424;273;19;389